sat.trackr.live / text

‹ back to catalog

STARLINK-33887

NORAD 63680 · 2025-085S

PAYLOAD ACTIVE UNKNOWN

§ Identity

Operator
Country
US
Launch date
2025-04-28
Launch site
AFETR
Launch vehicle
Mass (kg)
RCS (m²)

Purposes: comms

External: N2YO · Heavens-Above · Gunter

§ Orbital elements

Epoch: 2026-05-25T04:22:23.624832Z

Period
94.27 min
Inclination
43.0008°
Eccentricity
0.0001784
Mean motion
15.27586726 rev/d
Perigee alt
481.8 km
Apogee alt
484.3 km
Semi-major
6,861.2 km
B*
7.3656e-4
RAAN
318.4777°
Arg perigee
273.1262°
Mean anomaly
86.9385°
Rev number
6,063

§ Raw data

STARLINK-338871 63680U 25085S   26145.18221788  .00020066  00000+0  73656-3 0  99912 63680  43.0008 318.4777 0001784 273.1262  86.9385 15.27586726 60633

JSON: /api/v1/satellites/63680 · /tle

For live sub-satellite position, see the globe view (requires WebGL).

§ Visibility from observer

Set your observer location to see the next 7 days of passes ≥ 10°. The values pass through the URL so the page stays shareable.

No JS? Fill the form by hand. The geolocation button needs JavaScript.